Time,TemperatureF,DewpointF,PressureIn,WindDirection,WindDirectionDegrees,WindSpeedMPH,WindSpeedGustMPH,Humidity,HourlyPrecipIn,Conditions,Clouds,dailyrainin,SoftwareType,DateUTC
2013-01-17 00:02:00,13.0,1.0,30.12,WNW,290,3.0,5.0,59,0.00,,,0.01,,2013-01-17 06:02:00,
2013-01-17 00:12:00,13.0,2.0,30.13,NW,307,5.0,8.0,60,0.00,,,0.01,,2013-01-17 06:12:00,
2013-01-17 00:22:00,13.0,2.0,30.13,NW,307,5.0,8.0,60,0.00,,,0.01,,2013-01-17 06:22:00,
2013-01-17 00:32:00,12.0,1.0,30.14,NW,313,5.0,9.0,60,0.00,,,0.01,,2013-01-17 06:32:00,
2013-01-17 00:42:00,12.0,1.0,30.14,NW,313,5.0,9.0,60,0.00,,,0.01,,2013-01-17 06:42:00,
2013-01-17 00:52:00,12.0,0.0,30.16,NW,321,5.0,8.0,59,0.00,,,0.01,,2013-01-17 06:52:00,
2013-01-17 01:02:00,12.0,0.0,30.17,NW,322,3.0,10.0,58,0.00,,,0.01,,2013-01-17 07:02:00,
2013-01-17 01:12:00,12.0,0.0,30.17,NW,322,3.0,10.0,58,0.00,,,0.01,,2013-01-17 07:12:00,
2013-01-17 01:22:00,12.0,0.0,30.17,North,351,3.0,7.0,59,0.00,,,0.01,,2013-01-17 07:22:00,
2013-01-17 01:32:00,12.0,1.0,30.19,NNW,327,2.0,5.0,60,0.00,,,0.01,,2013-01-17 07:32:00,
2013-01-17 01:42:00,12.0,1.0,30.19,NNW,327,2.0,5.0,60,0.00,,,0.01,,2013-01-17 07:42:00,
2013-01-17 01:52:00,12.0,1.0,30.20,NNW,329,3.0,6.0,60,0.00,,,0.01,,2013-01-17 07:52:00,
2013-01-17 02:02:00,12.0,0.0,30.20,NNW,327,9.0,12.0,59,0.00,,,0.01,,2013-01-17 08:02:00,
2013-01-17 02:12:00,12.0,0.0,30.20,NNW,327,9.0,12.0,59,0.00,,,0.01,,2013-01-17 08:12:00,
2013-01-17 02:22:00,12.0,1.0,30.21,North,5,6.0,11.0,60,0.00,,,0.01,,2013-01-17 08:22:00,
2013-01-17 02:32:00,12.0,1.0,30.21,NNW,337,9.0,16.0,60,0.00,,,0.01,,2013-01-17 08:32:00,
2013-01-17 02:43:00,12.0,1.0,30.21,NNW,337,9.0,16.0,60,0.00,,,0.01,,2013-01-17 08:43:00,
2013-01-17 02:52:00,11.0,0.0,30.21,NW,311,4.0,10.0,60,0.00,,,0.01,,2013-01-17 08:52:00,
2013-01-17 03:02:00,11.0,0.0,30.22,NW,321,3.0,7.0,60,0.00,,,0.01,,2013-01-17 09:02:00,
2013-01-17 03:12:00,11.0,0.0,30.22,NW,321,3.0,7.0,60,0.00,,,0.01,,2013-01-17 09:12:00,
2013-01-17 03:22:00,11.0,0.0,30.21,North,5,6.0,7.0,60,0.00,,,0.01,,2013-01-17 09:22:00,
2013-01-17 03:32:00,11.0,0.0,30.21,NNW,334,5.0,10.0,60,0.00,,,0.01,,2013-01-17 09:32:00,
2013-01-17 03:42:00,11.0,0.0,30.21,NNW,334,5.0,10.0,60,0.00,,,0.01,,2013-01-17 09:42:00,
2013-01-17 03:52:00,11.0,0.0,30.22,NW,319,3.0,8.0,59,0.00,,,0.01,,2013-01-17 09:52:00,
2013-01-17 04:02:00,10.0,-2.0,30.22,NNW,340,4.0,8.0,57,0.00,,,0.01,,2013-01-17 10:02:00,
2013-01-17 04:12:00,10.0,-2.0,30.22,NNW,340,4.0,8.0,57,0.00,,,0.01,,2013-01-17 10:12:00,
2013-01-17 04:22:00,10.0,-1.0,30.22,NNE,19,1.0,4.0,60,0.00,,,0.01,,2013-01-17 10:22:00,
2013-01-17 04:32:00,9.0,-2.0,30.22,NW,309,2.0,5.0,60,0.00,,,0.01,,2013-01-17 10:32:00,
2013-01-17 04:42:00,9.0,-2.0,30.22,NW,309,2.0,5.0,60,0.00,,,0.01,,2013-01-17 10:42:00,
2013-01-17 04:52:00,9.0,-2.0,30.24,NNW,342,2.0,7.0,59,0.00,,,0.01,,2013-01-17 10:52:00,
2013-01-17 05:02:00,9.0,-2.0,30.24,NNW,346,1.0,3.0,59,0.00,,,0.01,,2013-01-17 11:02:00,
2013-01-17 05:12:00,9.0,-2.0,30.24,NNW,346,1.0,3.0,59,0.00,,,0.01,,2013-01-17 11:12:00,
2013-01-17 05:22:00,8.0,-3.0,30.24,NW,326,3.0,7.0,59,0.00,,,0.01,,2013-01-17 11:22:00,
2013-01-17 05:33:00,8.0,-3.0,30.24,NW,321,3.0,5.0,60,0.00,,,0.01,,2013-01-17 11:33:00,
2013-01-17 05:42:00,8.0,-3.0,30.24,NW,321,3.0,5.0,60,0.00,,,0.01,,2013-01-17 11:42:00,
2013-01-17 05:52:00,7.0,-3.0,30.26,WNW,288,3.0,5.0,62,0.00,,,0.01,,2013-01-17 11:52:00,
2013-01-17 06:02:00,8.0,-2.0,30.26,WNW,282,2.0,5.0,63,0.00,,,0.01,,2013-01-17 12:02:00,
2013-01-17 06:12:00,8.0,-2.0,30.26,WNW,282,2.0,5.0,63,0.00,,,0.01,,2013-01-17 12:12:00,
2013-01-17 06:22:00,8.0,-2.0,30.26,NW,309,3.0,6.0,63,0.00,,,0.01,,2013-01-17 12:22:00,
2013-01-17 06:33:00,8.0,-2.0,30.27,WNW,294,3.0,6.0,64,0.00,,,0.01,,2013-01-17 12:33:00,
2013-01-17 06:42:00,8.0,-2.0,30.27,WNW,294,3.0,6.0,64,0.00,,,0.01,,2013-01-17 12:42:00,
2013-01-17 06:52:00,8.0,-2.0,30.27,WNW,289,7.0,9.0,64,0.00,,,0.01,,2013-01-17 12:52:00,
2013-01-17 07:03:00,8.0,-1.0,30.28,WNW,301,7.0,11.0,65,0.00,,,0.01,,2013-01-17 13:03:00,
2013-01-17 07:12:00,8.0,-1.0,30.28,WNW,301,7.0,11.0,65,0.00,,,0.01,,2013-01-17 13:12:00,
2013-01-17 07:22:00,8.0,-1.0,30.29,WNW,290,4.0,10.0,66,0.00,,,0.01,,2013-01-17 13:22:00,
2013-01-17 07:33:00,8.0,-1.0,30.29,WNW,290,4.0,10.0,66,0.00,,,0.01,,2013-01-17 13:33:00,
2013-01-17 07:43:00,8.0,-1.0,30.29,WNW,290,4.0,10.0,66,0.00,,,0.01,,2013-01-17 13:43:00,
2013-01-17 07:52:00,8.0,-2.0,30.30,WNW,292,6.0,11.0,62,0.00,,,0.01,,2013-01-17 13:52:00,
2013-01-17 08:03:00,8.0,-2.0,30.30,WNW,297,8.0,12.0,62,0.00,,,0.01,,2013-01-17 14:03:00,
2013-01-17 08:12:00,8.0,-2.0,30.30,WNW,297,8.0,12.0,62,0.00,,,0.01,,2013-01-17 14:12:00,
2013-01-17 08:23:00,8.0,-2.0,30.29,WNW,302,4.0,8.0,62,0.00,,,0.01,,2013-01-17 14:23:00,
2013-01-17 08:33:00,8.0,-2.0,30.30,WNW,297,6.0,9.0,63,0.00,,,0.01,,2013-01-17 14:33:00,
2013-01-17 08:42:00,8.0,-2.0,30.30,WNW,297,6.0,9.0,63,0.00,,,0.01,,2013-01-17 14:42:00,
2013-01-17 08:53:00,9.0,-1.0,30.30,West,272,2.0,8.0,64,0.00,,,0.01,,2013-01-17 14:53:00,
2013-01-17 09:03:00,9.0,-1.0,30.31,NW,314,4.0,9.0,63,0.00,,,0.01,,2013-01-17 15:03:00,
2013-01-17 09:12:00,9.0,-1.0,30.31,NW,314,4.0,9.0,63,0.00,,,0.01,,2013-01-17 15:12:00,
2013-01-17 09:22:00,9.0,-1.0,30.31,West,280,5.0,7.0,64,0.00,,,0.01,,2013-01-17 15:22:00,
2013-01-17 09:33:00,9.0,-1.0,30.32,WNW,288,4.0,10.0,63,0.00,,,0.01,,2013-01-17 15:33:00,
2013-01-17 09:43:00,9.0,-1.0,30.32,WNW,288,4.0,10.0,63,0.00,,,0.01,,2013-01-17 15:43:00,
2013-01-17 09:53:00,10.0,0.0,30.33,West,281,7.0,9.0,63,0.00,,,0.01,,2013-01-17 15:53:00,
2013-01-17 10:02:00,10.0,0.0,30.33,West,266,8.0,11.0,63,0.00,,,0.01,,2013-01-17 16:02:00,
2013-01-17 10:12:00,10.0,0.0,30.33,West,266,8.0,11.0,63,0.00,,,0.01,,2013-01-17 16:12:00,
2013-01-17 10:22:00,10.0,0.0,30.33,WNW,285,4.0,9.0,64,0.00,,,0.01,,2013-01-17 16:22:00,
2013-01-17 10:33:00,11.0,1.0,30.34,West,272,7.0,10.0,62,0.00,,,0.01,,2013-01-17 16:33:00,
2013-01-17 10:43:00,11.0,1.0,30.34,West,272,7.0,10.0,62,0.00,,,0.01,,2013-01-17 16:43:00,
2013-01-17 10:52:00,11.0,0.0,30.34,West,265,6.0,11.0,61,0.00,,,0.01,,2013-01-17 16:52:00,
2013-01-17 11:03:00,12.0,1.0,30.34,West,261,6.0,9.0,61,0.00,,,0.01,,2013-01-17 17:03:00,
2013-01-17 11:12:00,12.0,1.0,30.34,West,261,6.0,9.0,61,0.00,,,0.01,,2013-01-17 17:12:00,
2013-01-17 11:22:00,12.0,0.0,30.34,WNW,288,10.0,13.0,59,0.00,,,0.01,,2013-01-17 17:22:00,
2013-01-17 11:33:00,12.0,0.0,30.33,West,270,8.0,12.0,58,0.00,,,0.01,,2013-01-17 17:33:00,
2013-01-17 11:43:00,12.0,0.0,30.33,West,270,8.0,12.0,58,0.00,,,0.01,,2013-01-17 17:43:00,
2013-01-17 11:53:00,13.0,1.0,30.32,West,273,5.0,10.0,58,0.00,,,0.01,,2013-01-17 17:53:00,
2013-01-17 12:03:00,13.0,1.0,30.32,West,273,5.0,10.0,58,0.00,,,0.01,,2013-01-17 18:03:00,
2013-01-17 12:12:00,13.0,1.0,30.32,West,273,5.0,10.0,58,0.00,,,0.01,,2013-01-17 18:12:00,
2013-01-17 12:22:00,14.0,1.0,30.32,WNW,285,6.0,13.0,55,0.00,,,0.01,,2013-01-17 18:22:00,
2013-01-17 12:33:00,14.0,1.0,30.32,West,266,7.0,13.0,56,0.00,,,0.01,,2013-01-17 18:33:00,
2013-01-17 12:43:00,14.0,1.0,30.32,West,266,7.0,13.0,56,0.00,,,0.01,,2013-01-17 18:43:00,
2013-01-17 12:53:00,15.0,2.0,30.31,WNW,298,8.0,11.0,56,0.00,,,0.01,,2013-01-17 18:53:00,
2013-01-17 13:03:00,15.0,3.0,30.31,WNW,298,8.0,11.0,57,0.00,,,0.01,,2013-01-17 19:03:00,
2013-01-17 13:12:00,15.0,3.0,30.31,WNW,298,8.0,11.0,57,0.00,,,0.01,,2013-01-17 19:12:00,
2013-01-17 13:22:00,16.0,5.0,30.30,WNW,296,9.0,16.0,60,0.00,,,0.01,,2013-01-17 19:22:00,
2013-01-17 13:33:00,16.0,6.0,30.30,NW,309,10.0,16.0,63,0.00,,,0.00,,2013-01-17 19:33:00,
2013-01-17 13:42:00,16.0,6.0,30.30,NW,309,10.0,16.0,63,0.00,,,0.00,,2013-01-17 19:42:00,
2013-01-17 13:53:00,16.0,6.0,30.30,West,279,8.0,18.0,65,0.00,,,0.00,,2013-01-17 19:53:00,
2013-01-17 14:03:00,15.0,6.0,30.30,NW,309,11.0,19.0,68,0.00,,,0.00,,2013-01-17 20:03:00,
2013-01-17 14:12:00,15.0,6.0,30.30,NW,309,11.0,19.0,68,0.00,,,0.00,,2013-01-17 20:12:00,
2013-01-17 14:23:00,15.0,6.0,30.30,NW,309,11.0,19.0,68,0.00,,,0.00,,2013-01-17 20:23:00,
2013-01-17 14:33:00,15.0,7.0,30.30,WNW,286,8.0,14.0,69,0.00,,,0.00,,2013-01-17 20:33:00,
2013-01-17 14:43:00,15.0,7.0,30.30,WNW,286,8.0,14.0,69,0.00,,,0.00,,2013-01-17 20:43:00,
2013-01-17 14:54:00,15.0,6.0,30.30,WNW,296,8.0,14.0,68,0.00,,,0.00,,2013-01-17 20:54:00,
2013-01-17 15:03:00,15.0,7.0,30.30,NW,313,9.0,13.0,69,0.00,,,0.00,,2013-01-17 21:03:00,
2013-01-17 15:12:00,15.0,7.0,30.30,NW,313,9.0,13.0,69,0.00,,,0.00,,2013-01-17 21:12:00,
2013-01-17 15:23:00,16.0,7.0,30.30,West,281,9.0,14.0,68,0.00,,,0.00,,2013-01-17 21:23:00,
2013-01-17 15:33:00,16.0,7.0,30.31,West,273,6.0,15.0,68,0.00,,,0.00,,2013-01-17 21:33:00,
2013-01-17 15:42:00,16.0,7.0,30.31,West,273,6.0,15.0,68,0.00,,,0.00,,2013-01-17 21:42:00,
2013-01-17 15:52:00,16.0,7.0,30.31,West,279,8.0,14.0,68,0.00,,,0.00,,2013-01-17 21:52:00,
2013-01-17 16:03:00,16.0,8.0,30.31,NW,304,7.0,13.0,69,0.00,,,0.00,,2013-01-17 22:03:00,
2013-01-17 16:12:00,16.0,8.0,30.31,NW,304,7.0,13.0,69,0.00,,,0.00,,2013-01-17 22:12:00,
2013-01-17 16:23:00,15.0,7.0,30.31,WNW,296,7.0,15.0,69,0.00,,,0.00,,2013-01-17 22:23:00,
2013-01-17 16:33:00,15.0,7.0,30.32,WNW,287,7.0,13.0,69,0.00,,,0.00,,2013-01-17 22:33:00,
2013-01-17 16:42:00,15.0,7.0,30.32,WNW,287,7.0,13.0,69,0.00,,,0.00,,2013-01-17 22:42:00,
2013-01-17 16:52:00,14.0,6.0,30.33,West,281,7.0,13.0,70,0.00,,,0.00,,2013-01-17 22:52:00,
2013-01-17 17:03:00,14.0,6.0,30.33,WNW,285,5.0,11.0,71,0.00,,,0.00,,2013-01-17 23:03:00,
2013-01-17 17:12:00,14.0,6.0,30.33,WNW,285,5.0,11.0,71,0.00,,,0.00,,2013-01-17 23:12:00,
2013-01-17 17:22:00,13.0,6.0,30.34,WNW,285,4.0,8.0,72,0.00,,,0.00,,2013-01-17 23:22:00,
2013-01-17 17:33:00,13.0,6.0,30.34,WNW,296,6.0,8.0,72,0.00,,,0.00,,2013-01-17 23:33:00,
2013-01-17 17:42:00,13.0,6.0,30.34,WNW,296,6.0,8.0,72,0.00,,,0.00,,2013-01-17 23:42:00,
2013-01-17 17:53:00,12.0,5.0,30.35,WNW,284,5.0,8.0,73,0.00,,,0.00,,2013-01-17 23:53:00,
2013-01-17 18:02:00,12.0,5.0,30.35,WNW,286,3.0,7.0,73,0.00,,,0.00,,2013-01-18 00:02:00,
2013-01-17 18:12:00,12.0,5.0,30.35,WNW,286,3.0,7.0,73,0.00,,,0.00,,2013-01-18 00:12:00,
2013-01-17 18:23:00,11.0,4.0,30.34,WNW,291,1.0,4.0,74,0.00,,,0.00,,2013-01-18 00:23:00,
2013-01-17 18:32:00,11.0,4.0,30.34,WNW,291,1.0,4.0,74,0.00,,,0.00,,2013-01-18 00:32:00,
2013-01-17 18:42:00,11.0,5.0,30.35,West,265,3.0,5.0,75,0.00,,,0.00,,2013-01-18 00:42:00,
2013-01-17 18:52:00,10.0,4.0,30.35,West,273,2.0,5.0,76,0.00,,,0.00,,2013-01-18 00:52:00,
2013-01-17 19:03:00,10.0,4.0,30.35,WNW,288,2.0,3.0,76,0.00,,,0.00,,2013-01-18 01:03:00,
2013-01-17 19:12:00,10.0,4.0,30.35,WNW,288,2.0,3.0,76,0.00,,,0.00,,2013-01-18 01:12:00,
2013-01-17 19:22:00,10.0,4.0,30.36,WNW,288,1.0,4.0,77,0.00,,,0.00,,2013-01-18 01:22:00,
2013-01-17 19:33:00,9.0,4.0,30.37,WNW,288,1.0,3.0,78,0.00,,,0.00,,2013-01-18 01:33:00,
2013-01-17 19:42:00,9.0,4.0,30.37,WNW,288,1.0,3.0,78,0.00,,,0.00,,2013-01-18 01:42:00,
2013-01-17 19:52:00,9.0,4.0,30.37,WNW,288,1.0,3.0,78,0.00,,,0.00,,2013-01-18 01:52:00,
2013-01-17 20:02:00,9.0,4.0,30.37,West,275,1.0,3.0,79,0.00,,,0.00,,2013-01-18 02:02:00,
2013-01-17 20:12:00,9.0,4.0,30.37,West,275,1.0,3.0,79,0.00,,,0.00,,2013-01-18 02:12:00,
2013-01-17 20:22:00,8.0,3.0,30.37,SW,232,2.0,3.0,80,0.00,,,0.00,,2013-01-18 02:22:00,
2013-01-17 20:32:00,8.0,3.0,30.36,SW,228,1.0,3.0,79,0.00,,,0.00,,2013-01-18 02:32:00,
2013-01-17 20:42:00,8.0,3.0,30.36,SW,228,1.0,3.0,79,0.00,,,0.00,,2013-01-18 02:42:00,
2013-01-17 20:52:00,8.0,3.0,30.36,SW,230,1.0,3.0,80,0.00,,,0.00,,2013-01-18 02:52:00,
2013-01-17 21:02:00,8.0,3.0,30.36,SW,230,2.0,3.0,81,0.00,,,0.00,,2013-01-18 03:02:00,
2013-01-17 21:12:00,8.0,3.0,30.36,SW,230,2.0,3.0,81,0.00,,,0.00,,2013-01-18 03:12:00,
2013-01-17 21:23:00,8.0,3.0,30.34,SW,230,0.0,0.0,81,0.00,,,0.00,,2013-01-18 03:23:00,
2013-01-17 21:33:00,7.0,2.0,30.35,SW,230,0.0,3.0,81,0.00,,,0.00,,2013-01-18 03:33:00,
2013-01-17 21:42:00,7.0,2.0,30.35,SW,230,0.0,3.0,81,0.00,,,0.00,,2013-01-18 03:42:00,
2013-01-17 21:52:00,7.0,3.0,30.34,SSW,197,0.0,2.0,83,0.00,,,0.00,,2013-01-18 03:52:00,
2013-01-17 22:02:00,7.0,3.0,30.34,SSW,197,0.0,2.0,82,0.00,,,0.00,,2013-01-18 04:02:00,
2013-01-17 22:12:00,7.0,3.0,30.34,SSW,197,0.0,2.0,82,0.00,,,0.00,,2013-01-18 04:12:00,
2013-01-17 22:22:00,7.0,3.0,30.33,SSW,197,0.0,2.0,83,0.00,,,0.00,,2013-01-18 04:22:00,
2013-01-17 22:32:00,7.0,3.0,30.34,SW,220,2.0,3.0,84,0.00,,,0.00,,2013-01-18 04:32:00,
2013-01-17 22:42:00,7.0,3.0,30.34,SW,220,2.0,3.0,84,0.00,,,0.00,,2013-01-18 04:42:00,
2013-01-17 22:52:00,6.0,2.0,30.34,SW,219,0.0,2.0,84,0.00,,,0.00,,2013-01-18 04:52:00,
2013-01-17 23:03:00,7.0,3.0,30.33,SW,219,0.0,2.0,84,0.00,,,0.00,,2013-01-18 05:03:00,
2013-01-17 23:12:00,7.0,3.0,30.33,SW,219,0.0,2.0,84,0.00,,,0.00,,2013-01-18 05:12:00,
2013-01-17 23:22:00,7.0,3.0,30.33,SW,219,0.0,1.0,84,0.00,,,0.00,,2013-01-18 05:22:00,
2013-01-17 23:33:00,7.0,3.0,30.32,SW,219,1.0,2.0,84,0.00,,,0.00,,2013-01-18 05:33:00,
2013-01-17 23:42:00,7.0,3.0,30.32,SW,219,1.0,2.0,84,0.00,,,0.00,,2013-01-18 05:42:00,
2013-01-17 23:52:00,7.0,3.0,30.32,SW,219,1.0,3.0,84,0.00,,,0.00,,2013-01-18 05:52:00,